Simultaneous Nadir Overpasses (SNOs) Predictions

Prediction of SNOs between METOP-A and TERRA Satellite Orbit:

Table of predicted SNOs for the next 14.0 days since TLE Epoch: 5/26/2012
Index Date (METOP-A) Time (METOP-A) METOP-A Lat,Lon Date (TERRA) Time (TERRA) TERRA Lat,Lon Distance(km) Time Diff (sec)
1 05/29/2012 03:21:33 81.30, 176.62 05/29/2012 03:22:42 81.30, 176.46 2.70 69
2 05/29/2012 04:12:14 -81.30, -16.12 05/29/2012 04:12:09 -81.30, -15.98 2.45 5
3 05/31/2012 22:55:56 81.30,-117.14 05/31/2012 22:56:54 81.30,-117.16 0.52 58
4 05/31/2012 23:46:35 -81.31, 50.96 05/31/2012 23:46:20 -81.32, 50.80 2.66 15
5 06/03/2012 18:30:17 81.31, -50.49 06/03/2012 18:31:04 81.31, -50.58 1.51 47
6 06/03/2012 19:20:58 -81.31, 116.87 06/03/2012 19:20:31 -81.30, 117.03 2.62 27
7 06/06/2012 14:04:40
